CEB326 RPVE-RPLL

Flight info

Callsign CEB326
Flight time 0h 35m
Altitude 23000
Route MINOR8A MINOR B473 LAIYA LAIYA3R
Aircraft A320/M-SDE3FGHIRWY/LB1

Departure

Time 2026-04-22 10:11
Airport Godofredo P. Ramos Airport (RPVE)

Arrival

Time 2026-04-22 10:47
Airport Ninoy Aquino International Airport (RPLL)
Time Latitude Longitude Altitude Speed Heading
2026-04-22 10:02 11.92690 121.96405 24 ft 0 kts 152°
2026-04-22 10:03 11.92689 121.96405 24 ft 0 kts 152°
2026-04-22 10:03 11.92689 121.96406 24 ft 0 kts 152°
2026-04-22 10:04 11.92701 121.96399 26 ft 2 kts 152°
2026-04-22 10:04 11.92716 121.96391 26 ft 2 kts 152°
2026-04-22 10:05 11.92729 121.96384 26 ft 0 kts 152°
2026-04-22 10:06 11.92728 121.96384 26 ft 1 kts 168°
2026-04-22 10:06 11.92719 121.96370 26 ft 2 kts 241°
2026-04-22 10:06 11.92693 121.96320 26 ft 12 kts 245°
2026-04-22 10:07 11.92659 121.96243 26 ft 11 kts 245°
2026-04-22 10:07 11.92680 121.96185 26 ft 9 kts 327°
2026-04-22 10:07 11.92725 121.96178 26 ft 4 kts 315°
2026-04-22 10:07 11.92731 121.96172 26 ft 0 kts 314°
2026-04-22 10:08 11.92774 121.96135 28 ft 15 kts 325°
2026-04-22 10:08 11.92779 121.96043 27 ft 16 kts 244°
2026-04-22 10:08 11.92690 121.95867 26 ft 38 kts 245°
2026-04-22 10:08 11.92566 121.95621 27 ft 40 kts 242°
2026-04-22 10:09 11.92439 121.95364 27 ft 41 kts 244°
2026-04-22 10:09 11.92330 121.95145 28 ft 17 kts 243°
2026-04-22 10:09 11.92282 121.95065 27 ft 12 kts 222°
2026-04-22 10:09 11.92263 121.95025 27 ft 1 kts 346°
2026-04-22 10:10 11.92275 121.95036 27 ft 4 kts 49°
2026-04-22 10:10 11.92282 121.95051 27 ft 0 kts 62°
2026-04-22 10:10 11.92317 121.95120 29 ft 45 kts 63°
2026-04-22 10:11 11.92579 121.95644 31 ft 116 kts 63°
2026-04-22 10:11 11.92990 121.96502 381 ft 141 kts 65°
2026-04-22 10:11 11.93426 121.97426 1081 ft 144 kts 63°
2026-04-22 10:11 11.93880 121.98322 1839 ft 145 kts 64°
2026-04-22 10:12 11.94378 121.99301 2319 ft 164 kts 64°
2026-04-22 10:12 11.94930 122.00391 2669 ft 187 kts 65°
2026-04-22 10:12 11.95564 122.01650 3093 ft 211 kts 65°
2026-04-22 10:12 11.96459 122.02897 3788 ft 227 kts 43°
2026-04-22 10:13 11.97894 122.03776 4307 ft 254 kts 29°
2026-04-22 10:13 11.99537 122.04603 5015 ft 268 kts 28°
2026-04-22 10:13 12.01235 122.05448 5918 ft 274 kts 28°
2026-04-22 10:13 12.02967 122.06312 6786 ft 280 kts 27°
2026-04-22 10:14 12.04727 122.07192 7672 ft 284 kts 28°
2026-04-22 10:14 12.06511 122.08089 8545 ft 289 kts 27°
2026-04-22 10:14 12.08333 122.09008 9424 ft 294 kts 26°
2026-04-22 10:14 12.10166 122.09930 10147 ft 304 kts 25°
2026-04-22 10:15 12.12141 122.10925 10469 ft 328 kts 26°
2026-04-22 10:15 12.14223 122.11979 11044 ft 339 kts 26°
2026-04-22 10:15 12.16351 122.13058 11780 ft 344 kts 26°
2026-04-22 10:15 12.18513 122.14155 12519 ft 349 kts 26°
2026-04-22 10:16 12.20702 122.15267 13268 ft 354 kts 26°
2026-04-22 10:16 12.22919 122.16393 13952 ft 358 kts 26°
2026-04-22 10:16 12.25161 122.17529 14597 ft 361 kts 26°
2026-04-22 10:16 12.27421 122.18672 15224 ft 364 kts 26°
2026-04-22 10:17 12.29703 122.19826 15868 ft 368 kts 26°
2026-04-22 10:17 12.32023 122.20957 16494 ft 371 kts 21°
2026-04-22 10:17 12.34518 122.21641 17117 ft 373 kts
2026-04-22 10:17 12.37117 122.21696 17748 ft 376 kts 353°
2026-04-22 10:18 12.39668 122.21099 18317 ft 379 kts 339°
2026-04-22 10:18 12.42014 122.19869 18829 ft 381 kts 326°
2026-04-22 10:18 12.44210 122.18326 19358 ft 384 kts 325°
2026-04-22 10:18 12.46428 122.16778 19882 ft 387 kts 325°
2026-04-22 10:19 12.48668 122.15223 20403 ft 391 kts 325°
2026-04-22 10:19 12.50931 122.13658 20914 ft 394 kts 325°
2026-04-22 10:19 12.53179 122.12105 21410 ft 397 kts 325°
2026-04-22 10:19 12.55478 122.10513 21913 ft 400 kts 325°
2026-04-22 10:20 12.57790 122.08906 22407 ft 403 kts 325°
2026-04-22 10:20 12.60116 122.07286 22782 ft 406 kts 324°
2026-04-22 10:20 12.62442 122.05667 22862 ft 399 kts 324°
2026-04-22 10:20 12.64685 122.04106 22877 ft 383 kts 324°
2026-04-22 10:21 12.66872 122.02588 22871 ft 378 kts 324°
2026-04-22 10:21 12.69044 122.01078 22875 ft 377 kts 324°
2026-04-22 10:21 12.71239 121.99552 22877 ft 390 kts 324°
2026-04-22 10:21 12.73526 121.97960 22875 ft 403 kts 324°
2026-04-22 10:22 12.75881 121.96319 22876 ft 413 kts 324°
2026-04-22 10:22 12.78268 121.94652 22874 ft 416 kts 324°
2026-04-22 10:22 12.80663 121.92985 22873 ft 417 kts 324°
2026-04-22 10:22 12.83062 121.91317 22871 ft 417 kts 324°
2026-04-22 10:23 12.85461 121.89644 22874 ft 417 kts 324°
2026-04-22 10:23 12.87859 121.87971 22874 ft 417 kts 324°
2026-04-22 10:23 12.90255 121.86299 22875 ft 417 kts 324°
2026-04-22 10:23 12.92622 121.84648 22874 ft 417 kts 324°
2026-04-22 10:24 12.95051 121.82954 22877 ft 417 kts 324°
2026-04-22 10:24 12.97416 121.81305 22880 ft 417 kts 324°
2026-04-22 10:24 12.99815 121.79632 22876 ft 417 kts 324°
2026-04-22 10:24 13.02209 121.77960 22879 ft 417 kts 324°
2026-04-22 10:25 13.04608 121.76286 22876 ft 417 kts 324°
2026-04-22 10:25 13.07003 121.74613 22875 ft 417 kts 324°
2026-04-22 10:25 13.09399 121.72939 22874 ft 417 kts 324°
2026-04-22 10:25 13.11793 121.71263 22875 ft 417 kts 324°
2026-04-22 10:26 13.14190 121.69586 22878 ft 417 kts 324°
2026-04-22 10:26 13.16582 121.67911 22877 ft 417 kts 324°
2026-04-22 10:26 13.18980 121.66235 22880 ft 417 kts 324°
2026-04-22 10:26 13.21378 121.64563 22881 ft 417 kts 324°
2026-04-22 10:27 13.23776 121.62888 22879 ft 417 kts 324°
2026-04-22 10:27 13.26175 121.61209 22880 ft 417 kts 324°
2026-04-22 10:27 13.28571 121.59533 22880 ft 417 kts 324°
2026-04-22 10:27 13.30967 121.57855 22881 ft 417 kts 324°
2026-04-22 10:28 13.33361 121.56176 22881 ft 417 kts 324°
2026-04-22 10:28 13.35758 121.54496 22881 ft 417 kts 324°
2026-04-22 10:28 13.38157 121.52814 22883 ft 417 kts 324°
2026-04-22 10:28 13.40553 121.51136 22884 ft 417 kts 324°
2026-04-22 10:29 13.42883 121.49506 22880 ft 402 kts 324°
2026-04-22 10:29 13.45143 121.47926 22884 ft 384 kts 324°
2026-04-22 10:29 13.47333 121.46391 22883 ft 378 kts 324°
2026-04-22 10:29 13.49498 121.44871 22886 ft 376 kts 324°
2026-04-22 10:30 13.51657 121.43354 22876 ft 376 kts 324°
2026-04-22 10:30 13.53801 121.41847 22638 ft 370 kts 324°
2026-04-22 10:30 13.55909 121.40365 22317 ft 364 kts 324°
2026-04-22 10:30 13.57995 121.38895 21851 ft 362 kts 324°
2026-04-22 10:31 13.60048 121.37403 21377 ft 361 kts 323°
2026-04-22 10:31 13.62081 121.35887 20957 ft 358 kts 322°
2026-04-22 10:31 13.64065 121.34392 20513 ft 357 kts 322°
2026-04-22 10:31 13.66055 121.32888 20069 ft 356 kts 322°
2026-04-22 10:32 13.68037 121.31393 19762 ft 350 kts 323°
2026-04-22 10:32 13.70001 121.29919 19349 ft 349 kts 323°
2026-04-22 10:32 13.71961 121.28452 18956 ft 347 kts 323°
2026-04-22 10:32 13.73915 121.26996 18579 ft 345 kts 323°
2026-04-22 10:33 13.75854 121.25553 18215 ft 343 kts 324°
2026-04-22 10:33 13.77787 121.24113 17807 ft 341 kts 324°
2026-04-22 10:33 13.79058 121.23165 17533 ft 340 kts 324°
2026-04-22 10:33 13.81611 121.21260 17002 ft 337 kts 324°
2026-04-22 10:34 13.82860 121.20327 16613 ft 333 kts 324°
2026-04-22 10:34 13.85339 121.18475 15731 ft 329 kts 324°
2026-04-22 10:34 13.86580 121.17547 15420 ft 323 kts 324°
2026-04-22 10:34 13.88346 121.16229 15036 ft 313 kts 324°
2026-04-22 10:35 13.90080 121.14936 14671 ft 303 kts 324°
2026-04-22 10:35 13.91763 121.13680 14307 ft 295 kts 324°
2026-04-22 10:35 13.93426 121.12438 13947 ft 294 kts 325°
2026-04-22 10:35 13.95613 121.10803 13455 ft 294 kts 325°
2026-04-22 10:36 13.96733 121.09966 13198 ft 295 kts 325°
2026-04-22 10:36 13.98401 121.08721 12827 ft 296 kts 325°
2026-04-22 10:36 14.00067 121.07479 12464 ft 296 kts 325°
2026-04-22 10:36 14.01717 121.06245 12090 ft 297 kts 326°
2026-04-22 10:37 14.03390 121.04991 11716 ft 298 kts 325°
2026-04-22 10:37 14.06750 121.02481 10945 ft 299 kts 326°
2026-04-22 10:37 14.08426 121.01229 10673 ft 296 kts 326°
2026-04-22 10:38 14.10092 120.99981 10303 ft 296 kts 326°
2026-04-22 10:38 14.11769 120.98723 9908 ft 298 kts 326°
2026-04-22 10:38 14.13446 120.97465 9518 ft 298 kts 326°
2026-04-22 10:38 14.15094 120.96226 9391 ft 288 kts 326°
2026-04-22 10:39 14.16691 120.95026 9201 ft 281 kts 326°
2026-04-22 10:39 14.18331 120.93962 8958 ft 280 kts 333°
2026-04-22 10:39 14.20028 120.92963 8640 ft 279 kts 333°
2026-04-22 10:39 14.21707 120.91975 8303 ft 277 kts 333°
2026-04-22 10:40 14.23374 120.90993 7936 ft 276 kts 333°
2026-04-22 10:40 14.25021 120.90022 7480 ft 278 kts 332°
2026-04-22 10:40 14.26721 120.89021 7035 ft 280 kts 332°
2026-04-22 10:40 14.28390 120.88036 6740 ft 275 kts 332°
2026-04-22 10:41 14.30093 120.87044 6035 ft 287 kts 332°
2026-04-22 10:41 14.31867 120.86019 5359 ft 295 kts 332°
2026-04-22 10:41 14.33677 120.84973 4710 ft 301 kts 331°
2026-04-22 10:41 14.35484 120.83929 4228 ft 295 kts 332°
2026-04-22 10:42 14.37187 120.82941 4160 ft 267 kts 333°
2026-04-22 10:42 14.38840 120.82426 4089 ft 236 kts
2026-04-22 10:42 14.40260 120.82990 3919 ft 216 kts 47°
2026-04-22 10:42 14.41119 120.84238 3579 ft 215 kts 65°
2026-04-22 10:43 14.41815 120.85619 3100 ft 216 kts 65°
2026-04-22 10:43 14.42531 120.86961 2788 ft 209 kts 64°
2026-04-22 10:43 14.43238 120.88240 2518 ft 202 kts 63°
2026-04-22 10:43 14.43923 120.89471 2256 ft 191 kts 63°
2026-04-22 10:44 14.44567 120.90629 2020 ft 183 kts 63°
2026-04-22 10:44 14.45188 120.91745 1808 ft 172 kts 63°
2026-04-22 10:44 14.45752 120.92756 1588 ft 154 kts 64°
2026-04-22 10:44 14.46259 120.93666 1417 ft 139 kts 64°
2026-04-22 10:45 14.46728 120.94510 1226 ft 132 kts 64°
2026-04-22 10:45 14.47181 120.95327 1071 ft 130 kts 64°
2026-04-22 10:45 14.47628 120.96131 914 ft 130 kts 65°
2026-04-22 10:45 14.48080 120.96943 749 ft 131 kts 63°
2026-04-22 10:46 14.48534 120.97762 575 ft 133 kts 64°
2026-04-22 10:46 14.48995 120.98583 428 ft 133 kts 65°
2026-04-22 10:46 14.49446 120.99399 267 ft 130 kts 64°
2026-04-22 10:46 14.49899 121.00198 105 ft 131 kts 63°
2026-04-22 10:47 14.50297 121.00934 64 ft 90 kts 62°
2026-04-22 10:47 14.50469 121.01250 63 ft 30 kts 60°
2026-04-22 10:47 14.50572 121.01436 67 ft 30 kts 59°
2026-04-22 10:47 14.50676 121.01617 67 ft 29 kts 60°
2026-04-22 10:48 14.50768 121.01725 67 ft 21 kts 39°
2026-04-22 10:48 14.50853 121.01787 65 ft 8 kts 34°
2026-04-22 10:48 14.50893 121.01816 64 ft 6 kts 35°
2026-04-22 10:48 14.50928 121.01841 69 ft 7 kts 35°
2026-04-22 10:49 14.50975 121.01877 63 ft 8 kts 43°
2026-04-22 10:49 14.51012 121.01913 66 ft 7 kts 22°
2026-04-22 10:49 14.51052 121.01899 61 ft 7 kts 322°
2026-04-22 10:49 14.51105 121.01849 63 ft 14 kts 317°
2026-04-22 10:50 14.51206 121.01741 64 ft 22 kts 314°
2026-04-22 10:50 14.51270 121.01733 66 ft 9 kts 39°
2026-04-22 10:50 14.51339 121.01711 62 ft 14 kts 314°
2026-04-22 10:50 14.51404 121.01644 66 ft 13 kts 315°
2026-04-22 10:51 14.51466 121.01581 64 ft 12 kts 315°
2026-04-22 10:51 14.51524 121.01520 66 ft 12 kts 314°
2026-04-22 10:51 14.51583 121.01511 66 ft 9 kts 62°
2026-04-22 10:51 14.51618 121.01568 67 ft 2 kts 53°